Location: Kellogg
(38.0159°N, 90.0546°W)
Time: 15:46:45
(UTC+00:00)

Altair - Pass Details

Date: 20 September 2024
Orbit: 1501 x 1682 km, 47.2° (Epoch: 15 October)

Event Time Altitude Azimuth Distance (km) Brightness Sun altitude
Exits shadow 07:41:44 61° 41° (NE) 1,854 7.9 -43.8°
Drops below altitude 10° 07:49:49 10° 59° (ENE) 3,946 10.2 -42.8°
Sets 07:53:01 0° 61° (ENE) 4,939 10.9 -42.4°
